Location: Bu�n Treun
(12.1333°N, 108.3167°E)
Time: 00:28:09
(UTC+00:00)

Cosmos 1634 Rocket - Pass Details

Date: 13 July 2020
Orbit: 959 x 993 km, 82.9° (Epoch: 03 August)

Event Time Altitude Azimuth Distance (km) Brightness Sun altitude
Exits shadow 20:43:56 22° 177° (S) 2,029 5.4 -24.0°
Maximum altitude 20:48:16 79° 93° (E) 1,010 4.1 -23.1°
Drops below altitude 10° 20:54:35 10° 7° (N) 2,749 6.8 -21.7°
Sets 20:57:06 0° 6° (N) 3,697 7.5 -21.2°
